Orbital Elements at Epoch 2459200.5 (2020-Dec-17.0) TDB
Reference: JPL 20 (heliocentric ecliptic J2000)
Element | Value | Uncertainty (1-sigma) | Units |
e | .1435622992747742 | 4.4178e-08 | |
a | 2.791569043884283 | 1.5731e-08 | au |
q | 2.390804973359973 | 1.2369e-07 | au |
i | 3.373759304544603 | 4.9492e-06 | deg |
node | 229.1109445001735 | 7.6112e-05 | deg |
peri | 328.8811527294496 | 7.7707e-05 | deg |
M | 306.5260802545671 | 1.6461e-05 | deg |
tp | 2459453.552426810716 (2021-Aug-27.05242681) | 7.8508e-05 | TDB |
period | 1703.613164801488 4.66 | 1.44e-05 3.943e-08 | d yr |
n | .2113155776428557 | 1.7862e-09 | deg/d |
Q | 3.192333114408594 | 1.7989e-08 | au |
|
| | Orbit Determination Parameters
Additional Information
|